FW5295 Weather Reports


time (UTC)temp
C
wind
direction
speed
KPH
gust
KPH
rain 1hr
cm
rain 24hr
cm
rain mn
cm
humidity
%
barometer
mb
20260504081809 10 264 1.6 8.0 0.00 0.05 0.00 73 1003.2
20260504081307 10 239 1.6 6.4 0.00 0.05 0.00 72 1003.2
20260504080809 10 249 1.6 6.4 0.00 0.05 0.00 73 1003.2
20260504080524 10 238 4.8 6.4 0.00 0.05 0.00 75 1003.2
20260504070259 10 168 0.0 4.8 0.00 0.05 0.00 74 1003.9
20260504050748 11 217 3.2 6.4 0.00 0.05 0.00 73 1004.9
20260504050246 12 216 4.8 6.4 0.00 0.05 0.00 73 1004.9
20260504050006 12 193 3.2 9.7 0.00 0.05 0.05 72 1004.9
20260504045506 12 253 4.8 9.7 0.00 0.05 0.05 72 1005.2
20260504044748 12 200 3.2 8.0 0.00 0.05 0.05 71 1005.2
20260504044245 12 200 0.0 8.0 0.00 0.05 0.05 71 1005.2
20260504043745 12 187 3.2 9.7 0.00 0.05 0.05 70 1004.9
20260504043246 12 236 3.2 9.7 0.00 0.05 0.05 70 1005.2
20260504042744 12 207 3.2 6.4 0.00 0.05 0.05 69 1004.9
20260504042242 12 205 3.2 6.4 0.00 0.05 0.05 69 1005.2
20260504041743 12 237 6.4 6.4 0.00 0.05 0.05 69 1005.2
20260504041240 13 192 3.2 6.4 0.00 0.05 0.05 69 1004.9
20260504040742 13 216 6.4 6.4 0.00 0.05 0.05 68 1004.9
20260504040240 13 195 3.2 6.4 0.00 0.05 0.05 68 1004.9
20260504035740 13 230 6.4 8.0 0.00 0.05 0.05 68 1005.2
20260504035238 13 227 6.4 9.7 0.00 0.05 0.05 67 1004.9
20260504034739 13 224 3.2 9.7 0.00 0.05 0.05 67 1004.9
20260504034239 13 195 4.8 6.4 0.00 0.05 0.05 67 1004.9
20260504033738 13 204 3.2 8.0 0.00 0.05 0.05 66 1004.9
20260504033238 13 213 3.2 8.0 0.00 0.05 0.05 66 1004.9
20260504032737 13 207 3.2 8.0 0.00 0.05 0.05 66 1005.2
20260504032236 13 202 4.8 8.0 0.00 0.05 0.05 65 1004.9
20260504031737 14 210 3.2 6.4 0.00 0.05 0.05 65 1005.2
20260504031236 14 202 4.8 6.4 0.00 0.05 0.05 65 1005.2
20260504030735 14 183 3.2 8.0 0.00 0.05 0.05 64 1005.2
20260504030234 14 179 3.2 8.0 0.00 0.05 0.05 64 1005.2
20260504025737 14 217 4.8 8.0 0.00 0.05 0.05 65 1005.2
20260504025233 14 225 4.8 8.0 0.00 0.05 0.05 65 1005.2
20260504024733 14 227 3.2 4.8 0.00 0.05 0.05 65 1005.2
20260504024232 14 189 1.6 6.4 0.00 0.05 0.05 64 1005.2
20260504023732 14 215 3.2 6.4 0.00 0.05 0.05 63 1005.2
20260504023708 15 206 4.8 6.4 0.00 0.05 0.05 63 1005.2
20260504022733 15 203 3.2 6.4 0.00 0.05 0.05 63 1005.2
20260504022229 15 212 3.2 6.4 0.00 0.05 0.05 63 1005.2
20260504021732 15 213 3.2 6.4 0.00 0.05 0.05 63 1005.2
20260504021228 15 198 3.2 6.4 0.00 0.05 0.05 64 1005.2
20260504020730 15 192 3.2 8.0 0.00 0.05 0.05 63 1005.2
20260504020229 15 220 4.8 8.0 0.00 0.05 0.05 63 1005.2
20260504015957 15 213 0.0 9.7 0.00 0.05 0.05 62 1004.9
20260504015226 15 186 3.2 9.7 0.00 0.05 0.05 62 1004.9
20260504014728 15 230 4.8 8.0 0.00 0.05 0.05 62 1004.9
20260504014228 15 232 4.8 8.0 0.00 0.05 0.05 61 1004.9
20260504013726 15 167 0.0 6.4 0.00 0.05 0.05 61 1004.9
20260504013225 15 204 3.2 8.0 0.00 0.05 0.05 61 1004.6
20260504012725 15 238 3.2 8.0 0.00 0.05 0.05 60 1004.9
20260504012710 16 217 3.2 6.4 0.00 0.05 0.05 59 1004.9
20260504011723 16 225 4.8 6.4 0.00 0.05 0.05 59 1004.9
20260504011222 16 207 3.2 6.4 0.00 0.05 0.05 57 1004.9
20260504010723 16 222 3.2 6.4 0.00 0.05 0.05 58 1004.6
20260504010222 16 205 3.2 4.8 0.00 0.05 0.05 57 1004.6
20260504005721 16 193 3.2 4.8 0.00 0.05 0.05 56 1004.6
20260504005222 17 154 1.6 3.2 0.00 0.05 0.05 55 1004.6
20260504004722 17 207 3.2 4.8 0.00 0.05 0.05 53 1004.6
20260504004221 17 204 3.2 4.8 0.00 0.05 0.05 51 1004.6
20260504003719 18 220 1.6 6.4 0.00 0.05 0.05 50 1004.6
20260504003446 18 206 3.2 6.4 0.00 0.05 0.05 50 1004.6
20260504002719 18 204 1.6 6.4 0.00 0.05 0.05 49 1004.6
20260504002217 18 227 6.4 9.7 0.00 0.05 0.05 49 1004.6
20260504001719 18 228 3.2 9.7 0.00 0.05 0.05 48 1004.6
20260504001216 18 237 4.8 9.7 0.00 0.05 0.05 49 1004.9
20260504000716 18 237 4.8 8.0 0.00 0.05 0.05 49 1004.6
20260504000215 18 205 1.6 8.0 0.00 0.05 0.05 49 1004.9
20260503235715 19 247 1.6 11.3 0.00 0.05 0.05 49 1004.9
20260503235440 19 196 3.2 11.3 0.00 0.05 0.05 48 1004.9
20260503234715 19 241 4.8 9.7 0.00 0.05 0.05 47 1004.6
20260503234213 19 267 3.2 17.7 0.00 0.05 0.05 45 1004.6
20260503233718 19 251 3.2 17.7 0.00 0.05 0.05 46 1004.6
20260503233211 20 306 6.4 17.7 0.00 0.05 0.05 44 1004.9
20260503232713 20 238 6.4 17.7 0.00 0.05 0.05 45 1004.6
20260503232211 20 237 6.4 17.7 0.00 0.05 0.05 44 1004.6
20260503231712 20 275 6.4 16.1 0.00 0.05 0.05 45 1004.6
20260503231210 20 275 4.8 17.7 0.00 0.05 0.05 44 1004.9
20260503230712 20 252 4.8 17.7 0.00 0.05 0.05 44 1004.6
20260503230427 20 243 6.4 16.1 0.00 0.05 0.05 45 1004.6
20260503225934 20 231 6.4 17.7 0.00 0.05 0.05 46 1004.9
20260503225208 19 232 3.2 17.7 0.00 0.05 0.05 45 1004.9
20260503224710 20 233 14.5 16.1 0.00 0.05 0.05 47 1004.6
20260503224207 20 200 3.2 20.9 0.00 0.05 0.05 46 1004.9
20260503223925 20 229 3.2 20.9 0.00 0.05 0.05 45 1004.9
20260503223205 20 229 6.4 20.9 0.00 0.05 0.05 45 1005.2
20260503222706 20 239 11.3 19.3 0.00 0.05 0.05 45 1005.2
20260503222205 20 243 8.0 19.3 0.00 0.05 0.05 44 1004.9
20260503221706 20 235 9.7 19.3 0.00 0.05 0.05 44 1004.9
20260503221204 20 237 6.4 17.7 0.00 0.05 0.05 45 1005.2
20260503220709 20 229 3.2 22.5 0.00 0.05 0.05 45 1005.2
20260503220204 20 232 9.7 25.7 0.00 0.05 0.05 44 1004.9
20260503215704 20 233 8.0 25.7 0.00 0.05 0.05 46 1005.2
20260503215523 19 235 8.0 24.1 0.00 0.05 0.05 44 1005.2
20260503215422 19 225 6.4 16.1 0.00 0.05 0.05 45 1004.9
20260503214202 18 205 4.8 22.5 0.00 0.05 0.05 48 1005.2
20260503213702 18 222 14.5 22.5 0.00 0.05 0.05 47 1005.2
20260503213427 18 213 8.0 19.3 0.00 0.05 0.05 47 1005.2
20260503212702 18 184 8.0 19.3 0.00 0.05 0.05 46 1005.2
20260503212159 18 215 9.7 17.7 0.00 0.05 0.05 47 1005.2
20260503211700 18 271 6.4 20.9 0.00 0.05 0.05 47 1005.6
20260503211158 18 231 9.7 20.9 0.00 0.05 0.05 46 1006.0
20260503210700 18 211 8.0 16.1 0.00 0.05 0.05 48 1006.0
20260503210200 18 197 8.0 22.5 0.00 0.05 0.05 49 1006.0
20260503205657 18 213 9.7 22.5 0.00 0.05 0.05 45 1006.0
20260503205157 18 231 8.0 20.9 0.00 0.05 0.05 47 1006.0
20260503204657 18 206 14.5 20.9 0.00 0.05 0.05 47 1006.3
20260503204426 18 198 9.7 22.5 0.00 0.05 0.05 45 1006.3
20260503203659 18 231 6.4 30.6 0.00 0.05 0.05 46 1006.3
20260503203153 18 196 8.0 30.6 0.00 0.05 0.05 47 1006.7
20260503202653 18 254 4.8 22.5 0.00 0.05 0.05 45 1006.7
20260503202412 18 222 12.9 19.3 0.00 0.05 0.05 47 1007.0
20260503202306 18 213 14.5 22.5 0.00 0.05 0.05 45 1006.7
20260503201152 18 221 11.3 27.4 0.00 0.05 0.05 46 1007.4
20260503200652 17 222 11.3 32.2 0.00 0.05 0.05 44 1007.4
20260503200152 17 232 14.5 32.2 0.00 0.05 0.05 47 1007.4
20260503195651 17 222 9.7 22.5 0.00 0.05 0.05 48 1007.4
20260503195149 17 214 8.0 22.5 0.00 0.05 0.05 47 1007.4
20260503194651 17 208 16.1 22.5 0.00 0.05 0.05 47 1007.4
20260503194149 17 226 9.7 19.3 0.00 0.05 0.05 47 1007.7
20260503193650 17 202 11.3 24.1 0.00 0.05 0.05 48 1007.7
20260503193147 17 228 14.5 24.1 0.00 0.05 0.05 51 1007.7
20260503192914 17 232 9.7 24.1 0.00 0.05 0.05 52 1007.7
20260503192411 16 192 4.8 24.1 0.00 0.05 0.05 55 1007.7
20260503191647 16 218 9.7 24.1 0.00 0.05 0.05 57 1008.0
20260503191147 16 214 14.5 20.9 0.00 0.05 0.05 57 1007.7
20260503190914 16 229 11.3 29.0 0.00 0.05 0.05 57 1008.0
20260503190146 15 188 16.1 29.0 0.00 0.05 0.05 57 1008.0
20260503185646 15 196 12.9 24.1 0.00 0.05 0.05 61 1007.7
20260503185143 15 156 20.9 24.1 0.00 0.05 0.05 61 1008.0
20260503184909 15 218 9.7 29.0 0.00 0.05 0.05 60 1008.0
20260503184143 14 207 14.5 29.0 0.00 0.05 0.05 61 1008.0
20260503183911 14 179 11.3 30.6 0.00 0.05 0.05 61 1008.0
20260503183403 14 190 11.3 32.2 0.00 0.05 0.05 62 1008.0
20260503182642 14 198 8.0 32.2 0.00 0.05 0.05 62 1008.0
20260503182621 14 199 12.9 32.2 0.00 0.05 0.05 60 1008.7
20260503181641 14 188 8.0 30.6 0.00 0.05 0.05 62 1008.4
20260503181140 13 195 12.9 30.6 0.00 0.05 0.05 62 1008.7
20260503181122 13 175 14.5 29.0 0.00 0.05 0.05 63 1008.7
20260503180139 13 182 11.3 27.4 0.00 0.05 0.05 62 1009.1
20260503175638 13 207 6.4 27.4 0.00 0.05 0.05 60 1009.1
20260503175136 13 192 6.4 22.5 0.03 0.05 0.05 61 1009.4
20260503174901 13 164 8.0 25.7 0.03 0.05 0.05 64 1009.4
20260503174401 12 205 6.4 25.7 0.03 0.05 0.05 67 1009.4
20260503173637 12 186 8.0 24.1 0.03 0.05 0.05 69 1009.4
20260503173135 12 169 22.5 25.7 0.03 0.05 0.05 70 1009.4
20260503172635 11 175 14.5 25.7 0.03 0.05 0.05 72 1009.4
20260503172135 11 161 17.7 24.1 0.03 0.05 0.05 71 1009.8
20260503171635 11 181 9.7 20.9 0.03 0.05 0.05 73 1010.2
20260503171133 11 191 9.7 20.9 0.03 0.05 0.05 76 1010.2
20260503170633 11 223 6.4 20.9 0.03 0.05 0.05 74 1010.5
20260503170134 11 190 6.4 22.5 0.03 0.05 0.05 81 1010.9
20260503150621 10 226 4.8 22.5 0.00 0.00 0.00 72 1012.5
20260503150120 10 205 9.7 22.5 0.00 0.00 0.00 70 1012.9
20260503140116 9 226 4.8 11.3 0.00 0.00 0.00 70 1012.5
20260503131109 8 194 3.2 14.5 0.00 0.00 0.00 70 1013.3
20260503130608 8 225 3.2 14.5 0.00 0.00 0.00 70 1013.3
20260503130115 8 238 6.4 14.5 0.00 0.00 0.00 70 1013.3
20260503120106 7 212 8.0 9.7 0.00 0.00 0.00 71 1013.3
20260503110559 6 204 4.8 14.5 0.00 0.00 0.00 70 1012.5
20260503110108 6 169 3.2 16.1 0.00 0.00 0.00 70 1012.5